This is the latest recevied weather packets stored in our database for station/object WV8BRW. If no packets are shown the sender has not sent any weather packets the latest 10 day(s).
| Time | Temp. | Humidity | Pressure | Rain* | Wind** | Luminosity | Snow |
|---|---|---|---|---|---|---|---|
| 1777731409 | 10.56° C | 59% | 1015.7 hPa | 0 mm | - | 495 W/m² | - |
| 1777731107 | 10.56° C | 56% | 1015.6 hPa | 0 mm | - | 487 W/m² | - |
| 1777730806 | 10.56° C | 66% | 1015.6 hPa | 0 mm | - | 419 W/m² | - |
| 1777730502 | 10.56° C | 63% | 1015.7 hPa | 0 mm | - | 98 W/m² | - |
| 1777730198 | 10.56° C | 66% | 1015.7 hPa | 0 mm | - | 451 W/m² | - |
| 1777729895 | 10° C | 70% | 1015.6 hPa | 0 mm | - | 435 W/m² | - |
| 1777729591 | 10.56° C | 70% | 1015.8 hPa | 0 mm | - | 419 W/m² | - |
| 1777729288 | 10° C | 78% | 1015.5 hPa | 0 mm | - | 397 W/m² | - |
| 1777728985 | 8.89° C | 84% | 1015.7 hPa | 0 mm | - | 83 W/m² | - |
| 1777728681 | 8.33° C | 90% | 1015.6 hPa | 0 mm | - | 389 W/m² | - |
| 1777728378 | 7.78° C | 91% | 1015.5 hPa | 0 mm | - | 381 W/m² | - |
| 1777728076 | 7.22° C | 94% | 1015.7 hPa | 0 mm | - | 309 W/m² | - |
| 1777727772 | 6.67° C | 97% | 1015.9 hPa | 0 mm | - | 229 W/m² | - |
| 1777727470 | 6.11° C | 99% | 1016.1 hPa | 0 mm | - | 243 W/m² | - |
| 1777727167 | 6.11° C | 99% | 1015.9 hPa | 0 mm | - | 301 W/m² | - |
| 1777726865 | 6.11° C | 99% | 1015.8 hPa | 0 mm | - | 232 W/m² | - |
| 1777726560 | 5.56° C | 99% | 1015.9 hPa | 0 mm | - | 236 W/m² | - |
| 1777726258 | 5° C | 99% | 1016 hPa | 0 mm | - | 245 W/m² | - |
| 1777725954 | 4.44° C | 99% | 1015.9 hPa | 0 mm | - | 160 W/m² | - |
| 1777725652 | 3.89° C | 99% | 1015.8 hPa | 0 mm | - | 90 W/m² | - |
| 1777725350 | 3.89° C | 99% | 1015.9 hPa | 0 mm | - | 109 W/m² | - |
| 1777725046 | 3.89° C | 99% | 1015.7 hPa | 0 mm | - | 95 W/m² | - |
| 1777724743 | 3.89° C | 99% | 1015.7 hPa | 0 mm | - | 94 W/m² | - |
| 1777724440 | 3.89° C | 99% | 1015.8 hPa | 0 mm | - | 71 W/m² | - |
| 1777724138 | 3.33° C | 99% | 1015.7 hPa | 0 mm | - | 87 W/m² | - |
* Rain latest hour (hover to see other rain measurements)
** Current wind speed in m/s (hover to see current wind gust speed)